User: anonymous   Login
Location: *
(44.1392°N, 4.8079°E)
Time: 18:40:52
(UTC+00:00)
Language:

S3M - Orbit

View from above orbital plane
View from above orbital plane
View from above satellite
View from above satellite

Ground track
Ground track

The orbit data is extracted from the following two-line orbital elements,

1 12508U 81053B   21262.88277018  .00000040  00000-0  25245-4 0  9993
2 12508  82.9555  70.7051 0037560 173.7193 186.4443 13.76377232 29231
Epoch (UTC): 19 September 2021 21:11:11
Eccentricity: 0.0037560
inclination: 82.9555°
perigee height: 949 km
apogee height: 1004 km
right ascension of ascending node: 70.7051°
argument of perigee: 173.7193°
revolutions per day: 13.76377232
mean anomaly at epoch: 186.4443°
orbit number at epoch: 2923

The dashed part of the orbit path shows where the satellite is in the earth's shadow,  

DLR